Regional Weather Roundup
Issued by NWS

Home | Current Version | Previous Version | Text Only | Print | Product List | Glossary Off
Versions: 1 2 3 4 5 6 7 8 9 10 11 12 13 14 15 16 17 18 19 20 21 22 23 24 25 26 27 28 29 30 31 32 33 34 35 36 37 38 39 40 41 42 43 44 45 46 47 48 49 50

000
ASUS43 KOAX 251610
RWRNE

WEATHER ROUNDUP FOR NEBRASKA
NATIONAL WEATHER SERVICE OMAHA NE
1000 AM CST TUE NOV 25 2014

NOTES: SATELLITE DATA IS BEING USED TO AUGMENT CLOUD COVER ABOVE
       12000 FEET.
       "FAIR" INDICATES FEW OR NO CLOUDS BELOW 12,000 FEET WITH NO
       SIGNIFICANT WEATHER AND/OR OBSTRUCTIONS TO VISIBILITY.

  * THESE STATIONS DO NOT REPORT WEATHER SUCH AS RAIN...SNOW OR FOG.

NEZ001>004-019>022-054>056-251700-
NEBRASKA PANHANDLE

CITY           SKY/WX    TMP DP  RH WIND       PRES   REMARKS
SCOTTSBLUFF    CLOUDY    31  23  72 CALM      29.90F
ALLIANCE       CLOUDY    33  17  51 SW14      29.88F WCI  23
CHADRON        CLOUDY    34  21  59 SW6       29.85F WCI  29
KIMBALL        CLOUDY    34  15  46 W12G18    29.91S WCI  25
SIDNEY         CLOUDY    30  15  53 SW16      29.94F WCI  19
$$

NEZ057>060-069>072-079>082-251700-
SOUTHWEST NEBRASKA

CITY           SKY/WX    TMP DP  RH WIND       PRES   REMARKS
NORTH PLATTE   CLOUDY    28  23  81 CALM      30.01F
IMPERIAL       CLOUDY    30  20  66 SW12      30.01F WCI  20
LEXINGTON      PTSUNNY   32  24  73 SW5       30.04F WCI  27
MCCOOK         PTSUNNY   31  22  69 SW7       30.06F WCI  24
OGALLALA       CLOUDY    27  22  80 W5        29.98F WCI  22
$$

NEZ005>010-023>029-035>040-094-251700-
NORTH CENTRAL NEBRASKA

CITY           SKY/WX    TMP DP  RH WIND       PRES   REMARKS
VALENTINE      CLOUDY    30  25  81 SW7       29.91F WCI  23
AINSWORTH      CLOUDY    29  24  82 S8        29.94F WCI  21
BROKEN BOW     CLOUDY    31  24  75 SW7       30.00F WCI  24
O`NEILL        PTSUNNY   32  28  85 SW7       29.99F WCI  26
ORD            PTSUNNY   31  23  72 SW7       30.02F WCI  24
THEDFORD       CLOUDY    34  24  68 SW6       29.95F WCI  28
$$

NEZ041-046>049-061>064-073>077-083>087-251700-
SOUTH CENTRAL NEBRASKA

CITY           SKY/WX    TMP DP  RH WIND       PRES   REMARKS
GRAND ISLAND   MOSUNNY   31  23  72 W8        30.08F WCI  23
AURORA         SUNNY     31  25  78 SW7       30.08S WCI  25
HASTINGS       SUNNY     31  23  72 W8        30.07F WCI  23
HEBRON         SUNNY     33  24  68 SW9       30.13F WCI  25
HOLDREGE       MOSUNNY   32  23  68 W7        30.07F WCI  26
KEARNEY *      MOSUNNY   30  21  69 S7        30.07F WCI  23
YORK           SUNNY     32  25  74 SW7       30.09S WCI  26
$$

NEZ011>018-030>034-042>045-251700-
NORTHEAST NEBRASKA

CITY           SKY/WX    TMP DP  RH WIND       PRES   REMARKS
NORFOLK        SUNNY     31  23  72 SW10      30.04F WCI  22
ALBION         SUNNY     30  24  75 SW3       30.04F
BLAIR          PTSUNNY   30  15  54 S10       30.11S WCI  21
COLUMBUS *     SUNNY     30  21  69 SW7       30.09S WCI  23
FREMONT        SUNNY     29  19  66 S5        30.11F WCI  24
TEKAMAH        PTSUNNY   27  15  61 S9        30.12S WCI  18
WAYNE          SUNNY     29  20  69 S8        30.06F WCI  21
$$

NEZ050>053-065>068-078-088>093-251700-
SOUTHEAST NEBRASKA

CITY           SKY/WX    TMP DP  RH WIND       PRES   REMARKS
LINCOLN        MOSUNNY   28  20  71 S3        30.14F
OMAHA EPPLEY   MOSUNNY   29   9  43 VRB7      30.15S WCI  22
BEATRICE       SUNNY     31  22  71 SW6       30.14F WCI  25
FALLS CITY     SUNNY     29  13  51 VRB5      30.19S WCI  24
NEBRASKA CITY  SUNNY     28  11  48 SW7       30.16S WCI  21
PLATTSMOUTH    SUNNY     29   8  40 S8        30.14S WCI  22
$$

NEZ044-045-051>053-067-251700-
OMAHA AREA

CITY           SKY/WX    TMP DP  RH WIND       PRES   REMARKS
OMAHA EPPLEY   MOSUNNY   29   9  43 VRB7      30.15S WCI  22
BLAIR          PTSUNNY   30  15  54 S10       30.11S WCI  21
FREMONT        SUNNY     29  19  66 S5        30.11F WCI  24
MILLARD        SUNNY     29  14  52 SW5       30.14S WCI  24
OFFUTT AFB     SUNNY     27  13  55 S3        30.14S
PLATTSMOUTH    SUNNY     29   8  40 S8        30.14S WCI  22
WAHOO          FAIR      30  19  64 SW6       30.12S WCI  24
$$


USA.gov is the U.S. government's official web portal to all federal, state and local government web resources and services.